sat.trackr.live / text

‹ back to catalog

STARLINK-31538

NORAD 59525 · 2024-073Q

PAYLOAD ACTIVE UNKNOWN

§ Identity

Operator
Country
US
Launch date
2024-04-17
Launch site
AFETR
Launch vehicle
Mass (kg)
RCS (m²)

Purposes: comms

External: N2YO · Heavens-Above · Gunter

§ Orbital elements

Epoch: 2026-09-21T08:43:57.389952Z

Period
94.27 min
Inclination
43.0039°
Eccentricity
0.0001714
Mean motion
15.27590797 rev/d
Perigee alt
481.8 km
Apogee alt
484.2 km
Semi-major
6,861.2 km
B*
6.8267e-5
RAAN
292.7658°
Arg perigee
269.3592°
Mean anomaly
90.7063°
Rev number
13,610

§ Raw data

STARLINK-315381 59525U 24073Q   26264.36385868  .00001617  00000+0  68267-4 0  99962 59525  43.0039 292.7658 0001714 269.3592  90.7063 15.27590797136103

JSON: /api/v1/satellites/59525 · /tle

For live sub-satellite position, see the globe view (requires WebGL).

§ Visibility from observer

Set your observer location to see the next 7 days of passes ≥ 10°. The values pass through the URL so the page stays shareable.

No JS? Fill the form by hand. The geolocation button needs JavaScript.